ISR564 LGAV-LLBG

Flight info

Callsign ISR564
Flight time 1h 37m
Altitude 37000
Route KEA N132 TUXEM UT514 PEXAN UM601 MADEX UN132 KUPIS UN134 VANZA DCT PIKOG L609 ZUKKO
Aircraft A320/M-SDE2FGIJ1LORVWY/SB1

Departure

Time 2026-05-05 11:26
Airport Athens Eleftherios Venizelos International Airport (LGAV)

Arrival

Time 2026-05-05 13:03
Airport Ben Gurion International Airport (LLBG)
Time Latitude Longitude Altitude Speed Heading
2026-05-05 11:18 37.92804 23.94047 301 ft 0 kts 37°
2026-05-05 11:21 37.92800 23.94043 301 ft 4 kts 37°
2026-05-05 11:21 37.92778 23.94022 301 ft 4 kts 37°
2026-05-05 11:21 37.92762 23.94006 303 ft 4 kts 51°
2026-05-05 11:22 37.92752 23.93977 301 ft 4 kts 99°
2026-05-05 11:22 37.92757 23.93957 301 ft 0 kts 127°
2026-05-05 11:24 37.92757 23.93958 301 ft 1 kts 127°
2026-05-05 11:24 37.92743 23.93981 301 ft 5 kts 127°
2026-05-05 11:24 37.92714 23.94028 302 ft 10 kts 128°
2026-05-05 11:24 37.92656 23.94122 302 ft 16 kts 128°
2026-05-05 11:25 37.92585 23.94243 303 ft 18 kts 127°
2026-05-05 11:25 37.92505 23.94376 308 ft 19 kts 127°
2026-05-05 11:25 37.92542 23.94504 307 ft 19 kts 41°
2026-05-05 11:25 37.92759 23.94715 301 ft 70 kts 37°
2026-05-05 11:26 37.93313 23.95240 292 ft 128 kts 36°
2026-05-05 11:26 37.94151 23.96041 292 ft 171 kts 37°
2026-05-05 11:26 37.95120 23.96987 748 ft 175 kts 39°
2026-05-05 11:26 37.96085 23.97929 1377 ft 174 kts 40°
2026-05-05 11:27 37.97048 23.98852 2030 ft 175 kts 39°
2026-05-05 11:27 37.98081 23.99837 2393 ft 197 kts 38°
2026-05-05 11:27 37.99241 24.00946 2706 ft 222 kts 38°
2026-05-05 11:27 38.00532 24.02180 3217 ft 239 kts 37°
2026-05-05 11:28 38.01827 24.03580 3853 ft 254 kts 51°
2026-05-05 11:28 38.02564 24.05643 4601 ft 266 kts 79°
2026-05-05 11:28 38.02430 24.07997 5422 ft 274 kts 107°
2026-05-05 11:28 38.01562 24.10171 6319 ft 279 kts 119°
2026-05-05 11:29 38.00523 24.12260 7174 ft 282 kts 120°
2026-05-05 11:29 37.99443 24.14367 7976 ft 287 kts 120°
2026-05-05 11:29 37.98338 24.16495 8717 ft 292 kts 120°
2026-05-05 11:29 37.97197 24.18665 9440 ft 299 kts 120°
2026-05-05 11:30 37.96037 24.20867 10174 ft 304 kts 120°
2026-05-05 11:30 37.94827 24.23187 10412 ft 327 kts 120°
2026-05-05 11:30 37.93551 24.25664 10780 ft 342 kts 120°
2026-05-05 11:30 37.92245 24.28214 11417 ft 347 kts 120°
2026-05-05 11:31 37.90932 24.30797 12093 ft 351 kts 121°
2026-05-05 11:31 37.89613 24.33413 12750 ft 354 kts 120°
2026-05-05 11:31 37.88283 24.36064 13368 ft 359 kts 120°
2026-05-05 11:31 37.86925 24.38734 13957 ft 364 kts 123°
2026-05-05 11:32 37.85151 24.41048 14528 ft 371 kts 143°
2026-05-05 11:32 37.83007 24.42895 15121 ft 375 kts 146°
2026-05-05 11:32 37.80822 24.44728 15689 ft 379 kts 146°
2026-05-05 11:32 37.78608 24.46572 16240 ft 383 kts 147°
2026-05-05 11:33 37.76369 24.48430 16795 ft 387 kts 147°
2026-05-05 11:33 37.74110 24.50306 17335 ft 390 kts 147°
2026-05-05 11:33 37.71832 24.52204 17861 ft 395 kts 147°
2026-05-05 11:33 37.69531 24.54128 18395 ft 399 kts 147°
2026-05-05 11:34 37.67208 24.56070 18943 ft 402 kts 147°
2026-05-05 11:34 37.64867 24.58027 19520 ft 405 kts 147°
2026-05-05 11:34 37.62510 24.59997 20101 ft 407 kts 147°
2026-05-05 11:34 37.60176 24.61946 20652 ft 410 kts 147°
2026-05-05 11:35 37.57790 24.63935 21171 ft 412 kts 147°
2026-05-05 11:35 37.55394 24.65933 21684 ft 415 kts 147°
2026-05-05 11:35 37.52977 24.67946 22182 ft 417 kts 147°
2026-05-05 11:35 37.50549 24.69961 22677 ft 420 kts 147°
2026-05-05 11:36 37.48099 24.71991 23145 ft 423 kts 147°
2026-05-05 11:36 37.45636 24.74034 23632 ft 425 kts 147°
2026-05-05 11:36 37.43161 24.76089 24093 ft 428 kts 147°
2026-05-05 11:36 37.40674 24.78155 24544 ft 429 kts 147°
2026-05-05 11:37 37.38172 24.80234 24949 ft 433 kts 147°
2026-05-05 11:37 37.35650 24.82320 25343 ft 436 kts 147°
2026-05-05 11:37 37.33104 24.84419 25715 ft 439 kts 147°
2026-05-05 11:37 37.30537 24.86533 26089 ft 442 kts 147°
2026-05-05 11:38 37.27955 24.88659 26442 ft 446 kts 147°
2026-05-05 11:38 37.25355 24.90800 26803 ft 448 kts 147°
2026-05-05 11:38 37.22743 24.92956 27147 ft 451 kts 147°
2026-05-05 11:38 37.20114 24.95127 27479 ft 454 kts 147°
2026-05-05 11:39 37.17467 24.97311 27806 ft 457 kts 147°
2026-05-05 11:39 37.14804 24.99504 28141 ft 459 kts 147°
2026-05-05 11:39 37.12131 25.01700 28476 ft 461 kts 147°
2026-05-05 11:39 37.09438 25.03910 28772 ft 464 kts 148°
2026-05-05 11:40 37.06731 25.06124 29083 ft 466 kts 148°
2026-05-05 11:40 37.04004 25.08351 29405 ft 469 kts 147°
2026-05-05 11:40 37.01269 25.10585 29709 ft 471 kts 147°
2026-05-05 11:40 36.98518 25.12831 30020 ft 473 kts 148°
2026-05-05 11:41 36.95752 25.15090 30306 ft 476 kts 147°
2026-05-05 11:41 36.92977 25.17360 30598 ft 478 kts 147°
2026-05-05 11:41 36.90192 25.19634 30949 ft 478 kts 148°
2026-05-05 11:41 36.87408 25.21900 31334 ft 477 kts 147°
2026-05-05 11:42 36.84625 25.24165 31711 ft 477 kts 148°
2026-05-05 11:42 36.81845 25.26428 32064 ft 477 kts 147°
2026-05-05 11:42 36.79062 25.28690 32428 ft 477 kts 148°
2026-05-05 11:42 36.76279 25.30950 32783 ft 478 kts 148°
2026-05-05 11:43 36.73492 25.33210 33122 ft 478 kts 148°
2026-05-05 11:43 36.70704 25.35468 33467 ft 478 kts 148°
2026-05-05 11:43 36.67912 25.37728 33808 ft 478 kts 148°
2026-05-05 11:43 36.65192 25.40122 34122 ft 480 kts 141°
2026-05-05 11:44 36.62735 25.42932 34425 ft 480 kts 135°
2026-05-05 11:44 36.60353 25.45835 34746 ft 480 kts 135°
2026-05-05 11:44 36.57962 25.48744 35042 ft 480 kts 135°
2026-05-05 11:44 36.56381 25.50665 35235 ft 480 kts 136°
2026-05-05 11:45 36.54730 25.52670 35447 ft 480 kts 136°
2026-05-05 11:45 36.52342 25.55565 35726 ft 480 kts 136°
2026-05-05 11:45 36.49950 25.58458 35976 ft 480 kts 136°
2026-05-05 11:45 36.47552 25.61353 36226 ft 480 kts 136°
2026-05-05 11:46 36.45156 25.64247 36470 ft 481 kts 136°
2026-05-05 11:46 36.42793 25.67105 36716 ft 481 kts 136°
2026-05-05 11:46 36.40367 25.70035 36993 ft 479 kts 136°
2026-05-05 11:46 36.38009 25.72877 37103 ft 479 kts 136°
2026-05-05 11:47 36.35616 25.75754 37107 ft 478 kts 136°
2026-05-05 11:47 36.30835 25.81485 37105 ft 478 kts 136°
2026-05-05 11:48 36.23998 25.90451 37106 ft 478 kts 123°
2026-05-05 11:48 36.20901 25.97692 37104 ft 476 kts 113°
2026-05-05 11:49 36.18099 26.05119 37100 ft 476 kts 114°
2026-05-05 11:49 36.15278 26.12543 37105 ft 477 kts 114°
2026-05-05 11:50 36.12450 26.19960 37105 ft 477 kts 114°
2026-05-05 11:50 36.09620 26.27375 37100 ft 477 kts 114°
2026-05-05 11:51 36.06788 26.34779 37096 ft 477 kts 114°
2026-05-05 11:51 36.03953 26.42189 37101 ft 477 kts 114°
2026-05-05 11:52 36.01112 26.49590 37096 ft 477 kts 114°
2026-05-05 11:52 35.98260 26.56990 37091 ft 477 kts 114°
2026-05-05 11:53 35.95396 26.64390 37084 ft 478 kts 114°
2026-05-05 11:53 35.92528 26.71804 37081 ft 479 kts 114°
2026-05-05 11:54 35.89649 26.79228 37083 ft 480 kts 114°
2026-05-05 11:54 35.86764 26.86656 37083 ft 481 kts 115°
2026-05-05 11:55 35.83872 26.94087 37083 ft 481 kts 115°
2026-05-05 11:55 35.80957 27.01499 37079 ft 481 kts 115°
2026-05-05 11:56 35.78046 27.08914 37080 ft 481 kts 115°
2026-05-05 11:56 35.75156 27.16272 37076 ft 481 kts 115°
2026-05-05 11:57 35.72241 27.23676 37071 ft 481 kts 115°
2026-05-05 11:57 35.69315 27.31075 37071 ft 481 kts 115°
2026-05-05 11:58 35.66383 27.38465 37073 ft 480 kts 115°
2026-05-05 11:58 35.63950 27.44600 37073 ft 480 kts 115°
2026-05-05 11:59 35.61019 27.51979 37070 ft 480 kts 115°
2026-05-05 11:59 35.58088 27.59351 37071 ft 480 kts 115°
2026-05-05 12:00 35.55150 27.66714 37066 ft 480 kts 115°
2026-05-05 12:00 35.52207 27.74068 37061 ft 480 kts 115°
2026-05-05 12:01 35.49262 27.81421 37062 ft 480 kts 115°
2026-05-05 12:01 35.46310 27.88775 37061 ft 480 kts 116°
2026-05-05 12:02 35.43352 27.96111 37060 ft 480 kts 116°
2026-05-05 12:02 35.40387 28.03443 37060 ft 480 kts 116°
2026-05-05 12:03 35.37418 28.10770 37060 ft 480 kts 116°
2026-05-05 12:03 35.34441 28.18097 37055 ft 481 kts 116°
2026-05-05 12:04 35.31464 28.25431 37054 ft 481 kts 116°
2026-05-05 12:04 35.28478 28.32766 37023 ft 481 kts 116°
2026-05-05 12:05 35.25951 28.40326 37015 ft 481 kts 108°
2026-05-05 12:05 35.23781 28.48063 37011 ft 481 kts 108°
2026-05-05 12:06 35.21590 28.55798 37005 ft 481 kts 108°
2026-05-05 12:06 35.19389 28.63535 36998 ft 482 kts 108°
2026-05-05 12:07 35.17194 28.71277 36993 ft 483 kts 108°
2026-05-05 12:07 35.14984 28.79034 36996 ft 484 kts 109°
2026-05-05 12:08 35.12762 28.86797 37006 ft 484 kts 109°
2026-05-05 12:08 35.10542 28.94567 37016 ft 484 kts 109°
2026-05-05 12:09 35.08316 29.02337 37017 ft 485 kts 109°
2026-05-05 12:09 35.06073 29.10109 37016 ft 485 kts 109°
2026-05-05 12:10 35.03828 29.17883 37007 ft 486 kts 109°
2026-05-05 12:10 35.01572 29.25658 37005 ft 486 kts 109°
2026-05-05 12:11 34.99309 29.33434 37005 ft 486 kts 110°
2026-05-05 12:11 34.96808 29.41096 37006 ft 486 kts 114°
2026-05-05 12:12 34.94080 29.48585 37009 ft 487 kts 115°
2026-05-05 12:12 34.91322 29.56125 37010 ft 487 kts 114°
2026-05-05 12:13 34.88639 29.63704 37011 ft 488 kts 114°
2026-05-05 12:13 34.85978 29.71301 37011 ft 488 kts 114°
2026-05-05 12:14 34.83301 29.78888 37013 ft 488 kts 114°
2026-05-05 12:14 34.80608 29.86471 37013 ft 488 kts 114°
2026-05-05 12:15 34.77901 29.94047 37014 ft 488 kts 114°
2026-05-05 12:15 34.75018 30.01514 37010 ft 487 kts 123°
2026-05-05 12:16 34.71457 30.08510 37006 ft 486 kts 123°
2026-05-05 12:16 34.67893 30.15507 36997 ft 487 kts 123°
2026-05-05 12:17 34.64331 30.22505 36995 ft 487 kts 124°
2026-05-05 12:17 34.60763 30.29512 36999 ft 488 kts 123°
2026-05-05 12:18 34.57184 30.36511 37002 ft 488 kts 124°
2026-05-05 12:18 34.53599 30.43497 37015 ft 488 kts 124°
2026-05-05 12:19 34.50015 30.50481 37023 ft 488 kts 124°
2026-05-05 12:19 34.46413 30.57462 37034 ft 488 kts 124°
2026-05-05 12:20 34.42815 30.64443 37037 ft 488 kts 124°
2026-05-05 12:20 34.39215 30.71421 37041 ft 489 kts 124°
2026-05-05 12:21 34.35610 30.78402 37038 ft 489 kts 124°
2026-05-05 12:21 34.31995 30.85373 37035 ft 489 kts 124°
2026-05-05 12:22 34.28382 30.92336 37031 ft 489 kts 124°
2026-05-05 12:22 34.24765 30.99294 37029 ft 489 kts 124°
2026-05-05 12:23 34.21138 31.06247 37026 ft 489 kts 124°
2026-05-05 12:23 34.17527 31.13144 37026 ft 489 kts 124°
2026-05-05 12:24 34.13890 31.20085 37024 ft 489 kts 125°
2026-05-05 12:24 34.10246 31.27023 37023 ft 489 kts 125°
2026-05-05 12:25 34.06600 31.33959 37027 ft 489 kts 125°
2026-05-05 12:25 34.02949 31.40888 37027 ft 490 kts 125°
2026-05-05 12:26 33.99296 31.47820 37028 ft 490 kts 125°
2026-05-05 12:26 33.95633 31.54752 37034 ft 490 kts 126°
2026-05-05 12:27 33.91967 31.61672 37029 ft 491 kts 126°
2026-05-05 12:27 33.88288 31.68605 37036 ft 491 kts 126°
2026-05-05 12:28 33.84614 31.75531 37036 ft 491 kts 126°
2026-05-05 12:28 33.80926 31.82449 37033 ft 491 kts 126°
2026-05-05 12:29 33.77239 31.89351 37038 ft 491 kts 126°
2026-05-05 12:29 33.73547 31.96255 37039 ft 491 kts 126°
2026-05-05 12:30 33.69854 32.03156 37044 ft 491 kts 126°
2026-05-05 12:30 33.66151 32.10047 37041 ft 491 kts 126°
2026-05-05 12:31 33.62442 32.16932 37045 ft 491 kts 126°
2026-05-05 12:31 33.58733 32.23818 37042 ft 492 kts 127°
2026-05-05 12:32 33.55022 32.30709 37044 ft 492 kts 127°
2026-05-05 12:32 33.51304 32.37590 37038 ft 492 kts 127°
2026-05-05 12:33 33.47576 32.44466 37024 ft 493 kts 127°
2026-05-05 12:33 33.43837 32.51347 37015 ft 493 kts 127°
2026-05-05 12:34 33.41965 32.54794 36527 ft 497 kts 127°
2026-05-05 12:34 33.40054 32.58296 35528 ft 506 kts 127°
2026-05-05 12:34 33.38146 32.61794 35167 ft 499 kts 127°
2026-05-05 12:34 33.36249 32.65272 34605 ft 498 kts 127°
2026-05-05 12:35 33.34361 32.68739 34059 ft 497 kts 127°
2026-05-05 12:35 33.32475 32.72194 33506 ft 496 kts 127°
2026-05-05 12:35 33.30591 32.75636 32953 ft 494 kts 127°
2026-05-05 12:35 33.28713 32.79071 32397 ft 493 kts 127°
2026-05-05 12:36 33.26839 32.82491 31839 ft 491 kts 127°
2026-05-05 12:36 33.24969 32.85900 31297 ft 489 kts 127°
2026-05-05 12:36 33.23111 32.89290 30757 ft 486 kts 127°
2026-05-05 12:36 33.21261 32.92661 30233 ft 484 kts 127°
2026-05-05 12:37 33.19424 32.96008 29709 ft 481 kts 127°
2026-05-05 12:37 33.17594 32.99338 29202 ft 478 kts 127°
2026-05-05 12:37 33.15776 33.02642 28704 ft 475 kts 127°
2026-05-05 12:37 33.13970 33.05922 28221 ft 472 kts 127°
2026-05-05 12:38 33.12196 33.09139 27738 ft 469 kts 127°
2026-05-05 12:38 33.10400 33.12380 27260 ft 466 kts 127°
2026-05-05 12:38 33.08618 33.15590 26780 ft 464 kts 127°
2026-05-05 12:38 33.06839 33.18795 26293 ft 462 kts 127°
2026-05-05 12:39 33.05072 33.21979 25811 ft 460 kts 126°
2026-05-05 12:39 33.03321 33.25134 25339 ft 456 kts 126°
2026-05-05 12:39 33.01575 33.28286 24965 ft 452 kts 126°
2026-05-05 12:39 32.99838 33.31427 24404 ft 454 kts 126°
2026-05-05 12:40 32.98119 33.34533 24096 ft 445 kts 126°
2026-05-05 12:40 32.96420 33.37602 23467 ft 445 kts 126°
2026-05-05 12:40 32.95256 33.40016 23131 ft 442 kts 120°
2026-05-05 12:40 32.93694 33.43145 22714 ft 438 kts 125°
2026-05-05 12:41 32.92009 33.46129 22264 ft 427 kts 128°
2026-05-05 12:41 32.90317 33.48955 21800 ft 414 kts 129°
2026-05-05 12:41 32.88618 33.51769 21052 ft 421 kts 128°
2026-05-05 12:41 32.86930 33.54618 20535 ft 421 kts 128°
2026-05-05 12:42 32.85823 33.56529 20142 ft 416 kts 127°
2026-05-05 12:42 32.84016 33.59685 19310 ft 416 kts 127°
2026-05-05 12:42 32.82386 33.62476 18997 ft 407 kts 133°
2026-05-05 12:42 32.80519 33.64952 18584 ft 400 kts 137°
2026-05-05 12:43 32.79231 33.66576 18284 ft 398 kts 138°
2026-05-05 12:43 32.77325 33.68947 17860 ft 395 kts 138°
2026-05-05 12:43 32.75426 33.71285 17441 ft 392 kts 139°
2026-05-05 12:43 32.73536 33.73599 16957 ft 390 kts 139°
2026-05-05 12:44 32.71680 33.75871 16541 ft 387 kts 139°
2026-05-05 12:44 32.69818 33.78153 16164 ft 382 kts 138°
2026-05-05 12:44 32.67976 33.80415 15722 ft 380 kts 138°
2026-05-05 12:44 32.66148 33.82663 15285 ft 378 kts 138°
2026-05-05 12:45 32.64333 33.84893 14889 ft 374 kts 138°
2026-05-05 12:45 32.62537 33.87100 14498 ft 370 kts 138°
2026-05-05 12:45 32.60753 33.89292 14082 ft 367 kts 138°
2026-05-05 12:45 32.58987 33.91463 13653 ft 364 kts 138°
2026-05-05 12:46 32.57237 33.93612 13248 ft 361 kts 138°
2026-05-05 12:46 32.55496 33.95744 12857 ft 358 kts 138°
2026-05-05 12:46 32.53795 33.97854 12635 ft 350 kts 137°
2026-05-05 12:46 32.52137 33.99932 12381 ft 343 kts 137°
2026-05-05 12:47 32.50514 34.01972 12142 ft 337 kts 137°
2026-05-05 12:47 32.48917 34.03974 11909 ft 331 kts 138°
2026-05-05 12:47 32.47344 34.05943 11665 ft 327 kts 137°
2026-05-05 12:47 32.45785 34.07889 11430 ft 325 kts 137°
2026-05-05 12:48 32.44248 34.09837 11194 ft 324 kts 133°
2026-05-05 12:48 32.43017 34.12075 10958 ft 326 kts 118°
2026-05-05 12:48 32.42272 34.14606 10701 ft 326 kts 103°
2026-05-05 12:48 32.41824 34.17228 10446 ft 324 kts 103°
2026-05-05 12:49 32.41370 34.19824 10190 ft 321 kts 103°
2026-05-05 12:49 32.40913 34.22392 9936 ft 317 kts 103°
2026-05-05 12:49 32.40457 34.24920 9688 ft 312 kts 103°
2026-05-05 12:49 32.40004 34.27413 9442 ft 309 kts 103°
2026-05-05 12:50 32.39553 34.29888 9200 ft 306 kts 103°
2026-05-05 12:50 32.39108 34.32336 8958 ft 303 kts 103°
2026-05-05 12:50 32.38667 34.34764 8853 ft 301 kts 103°
2026-05-05 12:50 32.38229 34.37187 8739 ft 301 kts 103°
2026-05-05 12:51 32.37789 34.39613 8627 ft 301 kts 103°
2026-05-05 12:51 32.37350 34.42031 8517 ft 301 kts 103°
2026-05-05 12:51 32.36909 34.44454 8385 ft 300 kts 103°
2026-05-05 12:51 32.36467 34.46866 8261 ft 300 kts 104°
2026-05-05 12:52 32.36028 34.49272 8145 ft 299 kts 103°
2026-05-05 12:52 32.35585 34.51678 8028 ft 299 kts 105°
2026-05-05 12:52 32.34890 34.53977 7832 ft 297 kts 115°
2026-05-05 12:52 32.34079 34.56216 7598 ft 295 kts 115°
2026-05-05 12:53 32.33271 34.58438 7376 ft 294 kts 115°
2026-05-05 12:53 32.32467 34.60655 7143 ft 293 kts 115°
2026-05-05 12:53 32.31663 34.62868 6925 ft 293 kts 115°
2026-05-05 12:53 32.30859 34.65075 6692 ft 291 kts 115°
2026-05-05 12:54 32.29266 34.69458 6254 ft 289 kts 115°
2026-05-05 12:54 32.28473 34.71644 6028 ft 289 kts 115°
2026-05-05 12:54 32.27681 34.73821 5804 ft 288 kts 115°
2026-05-05 12:55 32.26891 34.75985 5615 ft 286 kts 115°
2026-05-05 12:55 32.26104 34.78137 5384 ft 284 kts 115°
2026-05-05 12:55 32.25345 34.80288 5040 ft 284 kts 110°
2026-05-05 12:55 32.24766 34.82525 4717 ft 284 kts 109°
2026-05-05 12:56 32.24186 34.84769 4370 ft 287 kts 109°
2026-05-05 12:56 32.23619 34.86960 4245 ft 275 kts 109°
2026-05-05 12:56 32.23070 34.89084 4086 ft 259 kts 109°
2026-05-05 12:56 32.22554 34.91070 3920 ft 247 kts 109°
2026-05-05 12:57 32.22059 34.92963 3779 ft 235 kts 110°
2026-05-05 12:57 32.21596 34.94737 3618 ft 224 kts 109°
2026-05-05 12:57 32.21141 34.96468 3362 ft 220 kts 112°
2026-05-05 12:57 32.20349 34.97981 3024 ft 206 kts 140°
2026-05-05 12:58 32.19247 34.98865 2998 ft 185 kts 163°
2026-05-05 12:58 32.18060 34.99192 3004 ft 166 kts 184°
2026-05-05 12:58 32.16971 34.99122 3012 ft 154 kts 192°
2026-05-05 12:58 32.15910 34.98962 3002 ft 151 kts 205°
2026-05-05 12:59 32.14967 34.98454 2970 ft 149 kts 213°
2026-05-05 12:59 32.14044 34.97902 2809 ft 147 kts 213°
2026-05-05 12:59 32.13158 34.97349 2673 ft 141 kts 214°
2026-05-05 13:00 32.11468 34.96267 2299 ft 135 kts 215°
2026-05-05 13:00 32.10648 34.95737 2115 ft 135 kts 215°
2026-05-05 13:01 32.08185 34.94143 1518 ft 134 kts 215°
2026-05-05 13:01 32.07361 34.93616 1386 ft 135 kts 215°
2026-05-05 13:01 32.06543 34.93089 1239 ft 133 kts 215°
2026-05-05 13:01 32.05736 34.92564 1014 ft 134 kts 216°
2026-05-05 13:02 32.04927 34.92036 898 ft 133 kts 216°
2026-05-05 13:02 32.04114 34.91506 717 ft 134 kts 214°
2026-05-05 13:02 32.03294 34.90992 518 ft 133 kts 213°
2026-05-05 13:02 32.02483 34.90461 331 ft 133 kts 214°
2026-05-05 13:03 32.01668 34.89938 142 ft 133 kts 212°
2026-05-05 13:03 32.00955 34.89464 119 ft 99 kts 208°
2026-05-05 13:03 32.00501 34.89174 116 ft 50 kts 208°
2026-05-05 13:03 32.00310 34.89048 119 ft 27 kts 211°
2026-05-05 13:04 32.00209 34.88947 120 ft 19 kts 228°
2026-05-05 13:04 32.00139 34.88832 116 ft 15 kts 239°
2026-05-05 13:04 32.00084 34.88723 118 ft 12 kts 245°
2026-05-05 13:04 32.00104 34.88624 118 ft 14 kts 301°
2026-05-05 13:05 32.00127 34.88579 120 ft 2 kts 301°
2026-05-05 13:05 32.00158 34.88521 118 ft 15 kts 302°
2026-05-05 13:05 32.00221 34.88402 118 ft 19 kts 302°
2026-05-05 13:05 32.00296 34.88258 120 ft 22 kts 302°
2026-05-05 13:06 32.00375 34.88106 120 ft 22 kts 301°
2026-05-05 13:06 32.00449 34.87959 120 ft 16 kts 292°
2026-05-05 13:06 32.00377 34.87867 120 ft 19 kts 211°
2026-05-05 13:06 32.00275 34.87795 120 ft 18 kts 211°
2026-05-05 13:07 32.00181 34.87734 120 ft 15 kts 189°
2026-05-05 13:07 32.00158 34.87745 120 ft 5 kts 128°
2026-05-05 13:07 32.00142 34.87789 120 ft 0 kts 119°
2026-05-05 13:07 32.00136 34.87801 120 ft 1 kts 118°
2026-05-05 13:08 32.00133 34.87808 120 ft 0 kts 118°
2026-05-05 13:08 32.00133 34.87810 120 ft 0 kts 118°
2026-05-05 13:17 32.00133 34.87809 120 ft 0 kts 118°